Terminal Aerodrome Forecast
Issued by NWS

Home | Current Version | Previous Version | Text Only | Print | Product List | Glossary On
Versions: 1 2 3 4 5 6 7 8 9 10 11 12 13 14 15 16 17 18 19 20 21 22 23 24 25 26 27 28 29
000
FTUS41 KCTP 251515 AAA
TAFJST
TAF AMD
KJST 251515Z 2515/2612 25010G16KT P6SM BKN022 BKN035
     FM251630 26012G22KT P6SM SCT025 BKN100
     FM260300 29014KT P6SM SCT040=

USA.gov is the U.S. government's official web portal to all federal, state and local government web resources and services.